Regional Weather Roundup
Issued by NWS Charleston, SC

Current Version | Previous Version | Graphics & Text | Print | Product List | Glossary On
Versions: 1 2 3 4 5 6 7 8 9 10 11 12 13 14 15 16 17 18 19 20 21 22 23 24 25 26 27 28 29 30 31 32 33 34 35 36 37 38 39 40 41 42 43 44 45 46 47 48 49 50
000
ASUS42 KCHS 252110
RWRCHS
REGIONAL WEATHER ROUNDUP
NATIONAL WEATHER SERVICE CHARLESTON SC
400 PM EST TUE NOV 25 2014

NOTE: "FAIR" INDICATES FEW OR NO CLOUDS BELOW 12,000 FEET WITH NO
SIGNIFICANT WEATHER AND/OR OBSTRUCTIONS TO VISIBILITY.

NOT ALL STATIONS ARE QUALITY CONTROLLED BY THE NATIONAL
WEATHER SERVICE. USE DATA WITH CAUTION...ESPECIALLY
DEWPOINT OBSERVATIONS.

SCZ027-030-031-034>040-042>050-252200-
...SOUTHEAST SOUTH CAROLINA...

CITY           SKY/WX    TMP DP  RH WIND       PRES   REMARKS
N CHARLESTON   LGT RAIN  64  63  94 NW7       29.99F
WATERFRONT PRK   N/A     63 N/A N/A N6          N/A
MOUNT PLEASANT MOCLDY    64  64 100 CALM      29.98F
JOHNS ISLAND   CLOUDY    64  64 100 CALM      29.98F
PINOPOLIS        N/A     63  59  88 N2        29.91F
MONCKS CORNER  DRIZZLE   64  64 100 CALM      30.00R
SUMMERVILLE    LGT RAIN  63  63 100 NW3       30.01R
BEAUFORT MCAS  LGT RAIN  64  62  93 N5        29.98F FOG
BEAUFORT ARPT  CLOUDY    63  63 100 N3        29.98S
HILTON HEAD IS CLOUDY    63  63 100 NW5       29.98F
WALTERBORO     DRIZZLE   64 N/A N/A NW3       30.01R
ALLENDALE      CLOUDY    59  57  94 CALM      30.00F

...SOUTHERN MIDLANDS AND PEE DEE...

CITY           SKY/WX    TMP DP  RH WIND       PRES   REMARKS
GEORGETOWN     NOT AVBL
KINGSTREE      NOT AVBL
ORANGEBURG     CLOUDY    62  57  83 CALM      30.01S
BARNWELL         N/A     59  57  94 NW3       30.02F
AIKEN          LGT RAIN  54  54 100 CALM      30.07R
MANNING        NOT AVBL
COLUMBIA       LGT RAIN  59  55  87 W6        30.02R
SUMTER         CLOUDY    62  59  92 NW3       29.99S
FLORENCE       CLOUDY    63  61  93 NW5       30.02S
MYRTLE BEACH   LGT RAIN  64  63  94 NW6       30.02R
N MYRTLE BEACH LGT RAIN  64  62  93 NW5       30.01R

$$

GAZ063-065-086>088-099>101-113>116-118-119-134>141-150-252200-
...SOUTHEAST GEORGIA...

CITY           SKY/WX    TMP DP  RH WIND       PRES   REMARKS
SAVANNAH ARPT  DRZL/FOG  62  58  86 NW9       30.00R VSB 1
HUNTER AAF     LGT RAIN  64  64 100 N5        29.97R VSB 1
FORT STEWART   CLOUDY    59  57  94 N8        29.99S
STATESBORO     NOT AVBL
SYLVANIA       DRIZZLE   57  55  92 NW6       30.02S
CLAXTON        CLOUDY    59  54  82 NW3       30.02S

...CSRA...CENTRAL AND FAR SOUTHEAST GEORGIA...

CITY           SKY/WX    TMP DP  RH WIND       PRES   REMARKS
THOMSON        CLOUDY    55  55 100 CALM      30.07R
AUGUSTA-BUSH   LGT RAIN  55  52  89 W3        30.02S
AUGUSTA-DANIEL LGT RAIN  55  50  83 SE3       30.02R
SWAINSBORO     DRIZZLE   55  55 100 CALM      30.01F
VIDALIA        LGT RAIN  52  50  93 N3        30.03R
HAZLEHURST     DRIZZLE   52  52 100 N3        30.01F
ALMA           RAIN      53  48  83 N7        30.01R
WAYCROSS       LGT RAIN  58  56  93 N6        30.01R
JESUP          LGT RAIN  61  59  94 CALM      30.01R
BAXLEY         CLOUDY    54  50  87 N9        30.02R
BRUNSWICK      CLOUDY    63  61  94 N3        29.98S
SAINT SIMONS   RAIN      62  61  96 NE7       29.97R FOG

$$

SCZ027-028-034-036>038-045-046-048>050-GAZ119-141-252200-
...LAKE AND SUPPLEMENTAL COASTAL OBSERVATIONS...

STATION/POSITION TIME  TEMP    WIND        PRES    WAVE   SWELL
                       AIR SEA DIR/SP/G            HT/PER HT/PER/DIR
                 (UTC) (F)     (DEG/KT/KT) (MB)    (FT/S) (FT/S/D)
UPR LAKE MARION  NOT AVBL
WINYAH BAY       2000   64        CALM     1015.0S
LAKE MURRAY      2000   59     260/  2/  4 1015.6S
ACE BASIN NERRS  2000   63        CALM     1015.0F
FORT PULASKI     2100   61     350/  3/  4 1015.3R
SAPELO ISLAND    2000   63      50/  5     1014.0F

$$

ANZ835-935-AMZ111-154-330-350-352-354-370-450-454-472-252200-
...C-MAN AND BUOY OBSERVATIONS...

STATION/POSITION TIME  TEMP    WIND        PRES    WAVE   SWELL
                       AIR SEA DIR/SP/G            HT/PER HT/PER/DIR
                 (UTC) (F)     (DEG/KT/KT) (MB)    (FT/S) (FT/S/D)
FOLLY BEACH CMAN 2000   61     360/  2/  3 1015.8F
BUOY 41004       2100   67 74   50/  6/  8 1014.9F   5/ 9   5/ 9
BUOY 41008       2100   64 64   40/ 10/ 12 1014.5R   3/10   2/110/10
CAPERS NEARSHORE 2000   60      CALM  /  2   N/A
FRIPP NEARSHORE  NOT AVBL


STATION/POSITION TIME  TEMP    WIND        PRES    WAVE   SWELL
                       AIR SEA DIR/SP/G            HT/PER HT/PER/DIR
                 (UTC) (F)     (DEG/KT/KT) (MB)    (FT/S) (FT/S/D)
5E ST. MARYS GA  2100      62                N/A     3/ 9
FRYING PAN BUOY  2100   65 69   60/  6/  8 1017.0R   4/ 8   3/140/ 8
BUOY 41025       2100   68     280/  6/ 10 1018.3R   5/ 8   5/130/ 8
CAPE LOOKOUT NC  2000   62     140/  2/  2 1017.5R
BUOY 41002       2047   75 74  190/ 17/ 21 1017.6F   7/ 9   3/120/ 9
BUOY 41010       2100   78 78  170/ 17/ 21 1014.1R   7/ 9   3/130/ 9
ST AUGUSTINE FL  2100   66     310/  7/  8 1014.9R


$$


USA.gov is the U.S. government's official web portal to all federal, state and local government web resources and services.